Location: La Chapelle
(48.3135°N, 1.3085°W)
Time: 03:49:28
(UTC+00:00)

USA 306 - Pass Details

Date: 03 March 2021
Orbit: 564 x 577 km, 54.0° (Epoch: 17 April)

Event Time Altitude Azimuth Distance (km) Brightness Sun altitude
Rises 19:58:49 0° 289° (WNW) 2,773 7.9 -21.6°
Reaches altitude 10° 20:01:11 10° 297° (WNW) 1,872 6.6 -22.0°
Maximum altitude 20:05:12 39° 7° (N) 855 3.8 -22.6°
Enters shadow 20:05:36 38° 22° (NNE) 870 3.7 -22.7°
